Regional Weather Roundup
Issued by NWS

Home | Current Version | Previous Version | Graphics & Text | Print | Product List | Glossary On
Versions: 1 2 3 4 5 6 7 8 9 10 11 12 13 14 15 16 17 18 19 20 21 22 23 24 25 26 27 28 29 30 31 32 33 34 35 36 37 38 39 40 41 42 43 44 45 46 47 48 49 50
000
ASUS43 KOAX 230310
RWRNE

WEATHER ROUNDUP FOR NEBRASKA
NATIONAL WEATHER SERVICE OMAHA NE
1000 PM CDT TUE AUG 22 2017

NOTES: SATELLITE DATA IS BEING USED TO AUGMENT CLOUD COVER ABOVE
       12000 FEET.
       "FAIR" INDICATES FEW OR NO CLOUDS BELOW 12,000 FEET WITH NO
       SIGNIFICANT WEATHER AND/OR OBSTRUCTIONS TO VISIBILITY.


NEZ001>004-019>022-054>056-230400-
NEBRASKA PANHANDLE

CITY           SKY/WX    TMP DP  RH WIND       PRES   REMARKS
SCOTTSBLUFF    CLEAR     69  53  56 E12       30.15R
ALLIANCE       CLEAR     63  50  62 SE10      30.17R
CHADRON        CLEAR     74  47  38 S16       30.10S
GORDON         FAIR      66  47  49 SE5       30.16R
KIMBALL        CLEAR     67  53  59 SE12      30.21S
SIDNEY         CLOUDY    68  51  54 S13       30.20R
$$

NEZ057>060-069>072-079>082-230400-
SOUTHWEST NEBRASKA

CITY           SKY/WX    TMP DP  RH WIND       PRES   REMARKS
NORTH PLATTE   CLEAR     61  56  83 E8        30.19R
IMPERIAL       CLOUDY    61  52  72 SE8       30.20R
LEXINGTON      CLEAR     63  56  76 SE3       30.20R
MCCOOK         CLOUDY    65  54  67 E7        30.20R
OGALLALA       CLEAR     67  52  58 SE8       30.18S
$$

NEZ005>010-023>029-035>040-094-230400-
NORTH CENTRAL NEBRASKA

CITY           SKY/WX    TMP DP  RH WIND       PRES   REMARKS
VALENTINE      CLEAR     68  49  50 SE9       30.15R
AINSWORTH      CLEAR     62  53  73 SE8       30.17R
BROKEN BOW     CLEAR     62  55  77 CALM      30.19R
O`NEILL        CLEAR     64  55  72 SE5       30.17S
ORD            CLEAR     61  56  83 CALM      30.17R
THEDFORD       CLEAR     68  51  54 S10       30.19R
$$

NEZ041-046>049-061>064-073>077-083>087-230400-
SOUTH CENTRAL NEBRASKA

CITY           SKY/WX    TMP DP  RH WIND       PRES   REMARKS
GRAND ISLAND   CLEAR     63  57  81 SE5       30.19R
AURORA         CLEAR     62  57  85 E5        30.18S
HASTINGS       CLEAR     64  53  67 E6        30.19R
HEBRON         CLEAR     63  55  77 CALM      30.17S
HOLDREGE       CLEAR     61  57  87 CALM      30.20R
KEARNEY        CLEAR     65  56  72 S5        30.20R
YORK           CLEAR     61  59  94 CALM      30.18S
$$

NEZ011>018-030>034-042>045-230400-
NORTHEAST NEBRASKA

CITY           SKY/WX    TMP DP  RH WIND       PRES   REMARKS
NORFOLK        CLEAR     57  55  93 S5        30.16R
ALBION         CLEAR     60  59  95 CALM      30.18S
BLAIR          CLEAR     64  52  64 CALM      30.16R
COLUMBUS       CLEAR     58  55  90 CALM      30.17S
FREMONT        CLEAR     63  55  76 CALM      30.16S
TEKAMAH        CLEAR     61  56  83 CALM      30.14S
WAYNE          CLEAR     59  56  91 CALM      30.16R
$$

NEZ050>053-065>068-078-088>093-230400-
SOUTHEAST NEBRASKA

CITY           SKY/WX    TMP DP  RH WIND       PRES   REMARKS
LINCOLN        CLEAR     63  55  75 CALM      30.17R
OMAHA EPPLEY   PTCLDY    64  56  75 CALM      30.15R
BEATRICE       CLEAR     65  55  70 NE3       30.17R
FALLS CITY     CLEAR     63  54  72 NW3       30.14R
NEBRASKA CITY  CLEAR     62  56  79 NW5       30.16R
PLATTSMOUTH    CLEAR     63  51  65 CALM      30.16R
$$

NEZ044-045-051>053-067-230400-
OMAHA AREA

CITY           SKY/WX    TMP DP  RH WIND       PRES   REMARKS
OMAHA EPPLEY   PTCLDY    64  56  75 CALM      30.15R
BLAIR          CLEAR     64  52  64 CALM      30.16R
FREMONT        CLEAR     63  55  76 CALM      30.16S
MILLARD        CLEAR     64  55  74 CALM      30.15S
OFFUTT AFB     CLEAR     59  54  85 CALM      30.14R
PLATTSMOUTH    CLEAR     63  51  65 CALM      30.16R
WAHOO          FAIR      62  56  81 NW3       30.16R
$$



USA.gov is the U.S. government's official web portal to all federal, state and local government web resources and services.